Westhampton Beach, NY

5:38 AM EDT on June 27, 2017 (GMT -0400)
The Gabreski

Weather History for KFOK - November, 2013

Change the Weather History Date:

Sunday, November 24, 2013

  Actual Average Record
Temperature  
Mean Temperature 28 °F -  
Max Temperature 30 °F 49 °F 62 °F (2014)
Min Temperature 25 °F 31 °F 9 °F (2000)
Degree Days  
Heating Degree Days 38    
Moisture  
Dew Point 3 °F    
Average Humidity 36    
Maximum Humidity 45    
Minimum Humidity 24    
Precipitation  
Precipitation 0.00 in - - ()
Sea Level Pressure  
Sea Level Pressure 30.12 in    
Wind  
Wind Speed 21 mph (NW)    
Max Wind Speed 32 mph    
Max Gust Speed 41 mph    
Visibility 10 miles    
Events      
Averages and records for this station are not official NWS values.
T = Trace of Precipitation, MM = Missing Value Source: NWS Daily Summary

Daily Weather History Graph

Daily Weather History Graph

Search for Another Location

Airport or City:

Trip Planner

Search our weather history database for the weather conditions in past years. The results will help you decide how hot, cold, wet, or windy it might be!

Date:

Astronomy

Nov. 24, 2013 Rise Set
Actual Time 6:48 AM EST 4:26 PM EST
Civil Twilight 6:18 AM EST 4:56 PM EST
Nautical Twilight 5:44 AM EST 5:29 PM EST
Astronomical Twilight 5:11 AM EST 6:02 PM EST
Moon 10:50 PM EST (11/24) 11:33 AM EST (11/24)
Length of Visible Light 10h 37m
Length of Day
9h 37m
Waning Gibbous, 61% of the Moon is Illuminated
Nov 24
Waning Gibbous
Nov 25
Last Quarter
Dec 2
New
Dec 9
First Quarter
Dec 17
Full

Hourly Weather History & Observations

Time (EST) Temp. Windchill Dew Point Humidity Pressure Visibility Wind Dir Wind Speed Gust Speed Precip Events Conditions
12:53 AM 30.9 °F 17.8 °F 10.9 °F 43% 29.94 in 10.0 mi WNW 23.0 mph 31.1 mph N/A   Partly Cloudy
1:53 AM 28.9 °F 16.5 °F 8.1 °F 41% 29.96 in 10.0 mi WNW 18.4 mph 31.1 mph N/A   Partly Cloudy
2:53 AM 28.0 °F 17.0 °F 8.1 °F 43% 29.97 in 10.0 mi WNW 13.8 mph 31.1 mph N/A   Mostly Cloudy
3:53 AM 26.1 °F 13.1 °F 3.9 °F 39% 29.97 in 10.0 mi WNW 17.3 mph 34.5 mph N/A   Scattered Clouds
4:53 AM 26.1 °F 11.3 °F 3.0 °F 37% 29.98 in 10.0 mi WNW 23.0 mph 32.2 mph N/A   Mostly Cloudy
5:53 AM 25.0 °F 13.1 °F 3.9 °F 41% 30.00 in 10.0 mi WNW 13.8 mph 28.8 mph N/A   Scattered Clouds
6:53 AM 25.0 °F 9.9 °F 5.0 °F 43% 30.02 in 10.0 mi WNW 23.0 mph 33.4 mph N/A   Overcast
7:53 AM 25.0 °F 9.5 °F 6.1 °F 45% 30.04 in 10.0 mi NW 24.2 mph 32.2 mph N/A   Mostly Cloudy
8:53 AM 27.0 °F 11.0 °F 5.0 °F 39% 30.05 in 10.0 mi NW 28.8 mph 35.7 mph N/A   Mostly Cloudy
9:53 AM 28.0 °F 13.0 °F 3.0 °F 34% 30.06 in 10.0 mi NW 26.5 mph 35.7 mph N/A   Overcast
10:53 AM 28.0 °F 13.6 °F 3.9 °F 36% 30.06 in 10.0 mi NNW 24.2 mph 35.7 mph N/A   Mostly Cloudy
11:53 AM 28.9 °F 14.5 °F 1.9 °F 32% 30.06 in 10.0 mi NW 25.3 mph 41.4 mph N/A   Clear
12:53 PM 30.0 °F 14.5 °F 1.0 °F 29% 30.07 in 10.0 mi WNW 32.2 mph 41.4 mph N/A   Clear
1:53 PM 30.0 °F 16.6 °F -0.9 °F 27% 30.10 in 10.0 mi NW 23.0 mph 41.4 mph N/A   Clear
2:53 PM 30.0 °F 16.0 °F -2.9 °F 24% 30.12 in 10.0 mi NW 25.3 mph 38.0 mph N/A   Clear
3:53 PM 28.9 °F 15.8 °F -2.0 °F 26% 30.16 in 10.0 mi NNW 20.7 mph 38.0 mph N/A   Clear
4:53 PM 28.0 °F 13.0 °F -2.0 °F 27% 30.21 in 10.0 mi NW 26.5 mph 35.7 mph N/A   Scattered Clouds
5:53 PM 27.0 °F 13.9 °F -0.9 °F 30% 30.24 in 10.0 mi NW 18.4 mph 32.2 mph N/A   Scattered Clouds
6:53 PM 27.0 °F 12.5 °F -0.0 °F 31% 30.26 in 10.0 mi NW 23.0 mph 36.8 mph N/A   Partly Cloudy
7:53 PM 27.0 °F 13.9 °F 3.0 °F 36% 30.29 in 10.0 mi WNW 18.4 mph 26.5 mph N/A   Mostly Cloudy
8:53 PM 26.1 °F 13.6 °F 6.1 °F 43% 30.29 in 10.0 mi WNW 16.1 mph 24.2 mph N/A   Mostly Cloudy
9:53 PM 26.1 °F 14.5 °F 3.9 °F 39% 30.30 in 10.0 mi WNW 13.8 mph 25.3 mph N/A   Mostly Cloudy
10:53 PM 25.0 °F 12.2 °F 5.0 °F 43% 30.31 in 10.0 mi WNW 16.1 mph 24.2 mph N/A   Mostly Cloudy
11:53 PM 25.0 °F 12.2 °F 5.0 °F 43% 30.32 in 10.0 mi NW 16.1 mph 26.5 mph N/A   Partly Cloudy